This is the latest recevied weather packets stored in our database for station/object N4RCT. If no packets are shown the sender has not sent any weather packets the latest 10 day(s).
| Time | Temp. | Humidity | Pressure | Rain* | Wind** | Luminosity | Snow |
|---|---|---|---|---|---|---|---|
| 1777825601 | 16.67° C | 52% | 1020.6 hPa | 0 mm | - | 763 W/m² | - |
| 1777825299 | 16.67° C | 50% | 1020.6 hPa | 0 mm | - | 772 W/m² | - |
| 1777824996 | 16.67° C | 51% | 1020.6 hPa | 0 mm | - | 768 W/m² | - |
| 1777824691 | 17.22° C | 58% | 1020.6 hPa | 0 mm | - | 757 W/m² | - |
| 1777824389 | 16.11° C | 56% | 1020.8 hPa | 0 mm | - | 750 W/m² | - |
| 1777824084 | 16.67° C | 59% | 1020.6 hPa | 0 mm | - | 749 W/m² | - |
| 1777823781 | 16.67° C | 57% | 1020.8 hPa | 0 mm | - | 762 W/m² | - |
| 1777823478 | 16.67° C | 59% | 1020.6 hPa | 0 mm | - | 767 W/m² | - |
| 1777823175 | 16.67° C | 56% | 1020.7 hPa | 0 mm | - | 756 W/m² | - |
| 1777822874 | 15.56° C | 59% | 1020.6 hPa | 0 mm | - | 785 W/m² | - |
| 1777822571 | 16.11° C | 60% | 1020.7 hPa | 0 mm | - | 788 W/m² | - |
| 1777822268 | 16.11° C | 59% | 1020.7 hPa | 0 mm | - | 791 W/m² | - |
| 1777821966 | 15° C | 66% | 1020.8 hPa | 0 mm | - | 792 W/m² | - |
| 1777821664 | 14.44° C | 68% | 1020.8 hPa | 0 mm | - | 233 W/m² | - |
| 1777821361 | 14.44° C | 68% | 1020.7 hPa | 0 mm | - | 439 W/m² | - |
| 1777821057 | 15.56° C | 64% | 1021.2 hPa | 0 mm | - | 896 W/m² | - |
| 1777820754 | 15.56° C | 64% | 1020.6 hPa | 0 mm | - | 858 W/m² | - |
| 1777820450 | 14.44° C | 63% | 1020.8 hPa | 0 mm | - | 827 W/m² | - |
| 1777820148 | 15° C | 62% | 1020.9 hPa | 0 mm | - | 831 W/m² | - |
| 1777819845 | 15° C | 65% | 1020.8 hPa | 0 mm | - | 789 W/m² | - |
| 1777819542 | 14.44° C | 67% | 1021 hPa | 0 mm | - | 744 W/m² | - |
| 1777819240 | 14.44° C | 67% | 1020.8 hPa | 0 mm | - | 729 W/m² | - |
| 1777818937 | 15° C | 69% | 1020.9 hPa | 0 mm | - | 712 W/m² | - |
| 1777818633 | 14.44° C | 69% | 1020.9 hPa | 0 mm | - | 706 W/m² | - |
| 1777818331 | 13.89° C | 72% | 1020.8 hPa | 0 mm | - | 688 W/m² | - |
* Rain latest hour (hover to see other rain measurements)
** Current wind speed in m/s (hover to see current wind gust speed)